Location: N�rnberg
(49.4471°N, 11.0632°E)
Time: 17:46:55
(UTC+01:00)

ARIANE 6 FM1 Upper Stage - Pass Details

Date: 11 February 2026
Orbit: 523 x 607 km, 62.0° (Epoch: 8 March)

Event Time Altitude Azimuth Distance (km) Brightness Sun altitude
Rises 20:15:28 0° 316° (NW) 2,662 6.9 -27.5°
Reaches altitude 10° 20:17:41 10° 320° (NW) 1,769 5.8 -27.9°
Enters shadow 20:19:28 25° 328° (NNW) 1,090 4.5 -28.2°
